Location: Orzech
(50.4330°N, 18.9330°E)
Time: 22:52:12
(UTC+01:00)

ISS - Pass Details

Date: 20 October 2024
Orbit: 407 x 420 km, 51.6° (Epoch: 02 November)

Event Time Altitude Azimuth Distance (km) Brightness Sun altitude
Exits shadow 06:22:30 - 233° (SW) 1,751 -1.0 -9.1°
Reaches altitude 10° 06:23:12 10° 231° (SW) 1,468 -1.4 -9.0°
Maximum altitude 06:26:23 50° 155° (SSE) 530 -3.0 -8.5°
Drops below altitude 10° 06:29:36 10° 79° (ENE) 1,473 0.4 -8.0°
Sets 06:31:43 0° 74° (ENE) 2,336 1.4 -7.7°
